Location: Litvinovka
(48.6667°N, 34.3500°E)
Time: 02:47:09
(UTC+00:00)

Okean-O - Pass Details

Date: 18 September 2020
Orbit: 639 x 641 km, 98.2° (Epoch: 22 October)

Event Time Altitude Azimuth Distance (km) Brightness Sun altitude
Rises 16:28:41 0° 180° (S) 2,934 5.9 -7.4°
Reaches altitude 10° 16:30:57 10° 186° (S) 2,029 5.2 -7.8°
Maximum altitude 16:35:12 47° 260° (W) 854 3.8 -8.5°
Drops below altitude 10° 16:39:31 10° 335° (NNW) 2,045 5.8 -9.2°
Sets 16:41:49 0° 342° (NNW) 2,960 6.5 -9.6°
